Temperature
13 13 13 14 14 13 13 13 13 13 13 13 13 13 13 13 13 13 13 13 13 13 13 13 13 13 13 13 13 13 12 12 12 12 12 12 12 12 11 11 11 11 11
13 13 13 13 13 13 13 13 13 13 13 13 13 13 13 13 12 13 13 13 13 13 13 13 13 13 13 13 12 12 12 12 12 12 12 11 11 11 11 11 11 11 11
13 13 13 13 13 13 13 13 13 13 13 13 13 13 13 12 12 12 12 13 13 13 13 13 13 13 12 12 12 12 12 12 12 11 11 11 11 11 11 11 11 11 11
13 13 13 13 13 13 13 13 13 13 12 12 12 12 12 12 12 12 12 12 12 13 13 13 12 12 12 12 12 12 12 12 11 11 11 11 11 11 11 11 11 11 11
12 13 13 13 13 13 13 12 12 12 12 12 12 12 12 12 12 12 12 12 12 12 12 12 12 12 12 12 12 12 11 11 11 11 11 11 11 10 10 10 10 10 10
12 12 12 13 13 12 12 12 12 12 12 12 12 12 12 12 12 12 12 12 12 12 12 12 12 12 12 12 11 11 11 11 11 11 11 11 10 10 10 10 10 10 10
12 12 12 12 12 12 12 12 12 12 12 12 11 11 11 11 11 11 11 11 11 11 11 11 11 11 11 11 11 11 11 11 11 11 11 10 10 10 10 10 10 10 10
12 12 12 12 12 12 12 12 12 12 11 11 11 11 11 11 11 11 11 11 11 11 11 11 11 11 11 11 11 11 11 10 10 10 10 10 10 10 9 9 9 9 9
11 11 11 11 11 11 11 11 11 11 11 11 11 10 10 10 10 10 11 11 11 11 10 10 11 11 11 11 11 11 10 10 10 10 10 10 10 9 9 9 9 9 9
11 11 11 11 11 11 11 11 11 11 11 11 10 10 10 10 10 10 10 10 10 10 10 10 10 10 10 10 10 10 10 10 10 10 10 10 9 9 9 9 9 9 9
10 10 10 10 10 10 10 10 10 10 10 10 10 10 10 10 10 10 9 9 9 9 9 10 10 10 10 10 10 10 10 10 9 9 9 9 9 9 9 9 9 9 9
10 10 10 10 10 10 10 10 10 10 10 10 10 10 10 10 10 9 9 9 9 9 9 9 9 9 9 9 9 9 9 9 9 9 9 9 9 9 9 8 8 8 8
9 9 9 9 10 10 10 10 10 10 9 9 9 9 9 9 9 9 9 8 8 8 8 8 8 8 9 9 9 9 9 9 8 8 8 8 8 8 8 8 8 8 8
9 9 9 9 9 9 9 9 9 9 9 9 9 9 9 9 9 9 9 8 8 8 8 8 8 8 8 8 8 8 8 8 8 8 8 8 8 8 8 8 7 7 7
8 9 9 9 9 9 9 9 9 9 9 9 8 8 8 8 8 8 8 8 8 7 7 7 7 7 7 7 7 7 7 7 7 7 7 7 7 7 7 7 7 7 7
8 8 8 8 8 8 8 8 8 8 8 8 8 8 8 8 8 8 8 8 7 7 7 7 7 7 7 7 7 7 7 7 7 7 7 7 7 7 7 7 7 6 6
7 7 7 7 7 7 7 7 7 7 7 7 7 7 7 7 7 7 7 7 7 7 7 6 6 6 6 6 6 6 6 6 6 6 6 6 6 6 6 6 6 6 6
7 7 7 7 7 7 7 7 7 7 7 7 7 7 6 6 6 6 6 6 6 6 6 6 6 6 6 6 6 6 6 6 6 6 6 6 5 5 6 6 5 5 5
6 6 6 6 6 6 6 6 6 6 6 6 6 6 6 6 6 6 6 6 6 6 5 5 5 5 5 5 5 5 5 5 5 5 5 5 5 5 5 5 5 5 5
5 5 5 5 5 5 5 5 5 5 5 5 5 5 5 5 5 5 5 5 5 5 5 5 5 4 4 4 4 4 5 5 5 4 4 4 4 4 4 4 4 4 4
5 5 5 5 5 5 5 5 5 5 5 5 5 5 5 5 5 4 4 4 4 4 4 4 4 4 4 4 4 4 4 4 4 4 4 4 4 4 4 4 4 4 4
4 4 4 4 4 4 4 4 4 4 4 4 4 4 4 4 4 4 4 4 4 4 4 4 3 4 4 3 3 3 3 3 3 3 3 3 3 3 3 3 3 3 3
4 4 4 3 3 3 3 3 3 3 3 3 3 3 3 3 3 3 3 3 3 3 3 3 3 3 3 3 3 2 2 2 3 3 2 2 3 3 3 3 3 3 2
3 3 3 3 3 3 3 3 3 3 3 3 2 2 2 2 2 2 2 3 3 3 3 3 2 2 2 2 2 2 2 2 2 2 2 2 2 2 2 2 2 2 2
3 3 3 2 2 2 2 2 2 2 2 2 2 2 2 2 2 2 2 2 2 2 2 2 2 2 2 2 1 1 1 1 1 1 1 1 1 1 1 2 2 1 1
2 2 2 2 2 2 2 1 1 1 1 1 1 1 1 1 1 1 1 1 1 1 1 1 1 1 1 1 1 0 0 0 0 0 0 0 0 0 0 1 1 1 1
Wind_Speed
3 3 4 5 5 4 4 4 3 3 3 3 3 3 2 2 5 8 9 10 9 7 5 4 3 3 3 3 3 3 3 3 3 4 4 4 4 5 5 5 4 5 5
4 3 3 4 4 4 4 3 3 2 2 2 2 1 2 2 4 7 9 9 8 7 5 4 3 2 2 2 2 2 3 3 3 3 3 4 4 4 5 5 5 4 4
4 4 3 3 4 5 4 3 2 2 2 2 2 1 1 2 3 5 8 8 8 7 5 4 3 2 1 1 1 2 2 2 2 2 3 3 4 4 4 5 5 4 4
5 4 3 3 4 4 3 2 2 2 2 2 1 1 1 1 2 3 6 7 7 6 5 5 4 3 2 0 1 1 2 2 2 2 2 3 3 3 3 4 4 4 3
5 5 3 3 5 3 2 2 2 2 2 2 2 1 1 1 1 2 4 6 5 6 5 5 4 4 3 2 1 1 1 1 2 2 2 2 2 3 3 4 4 4 4
6 5 4 4 4 3 3 3 2 2 2 2 2 2 1 1 1 1 2 4 5 4 5 4 4 4 3 2 1 0 0 1 1 1 2 2 2 3 4 4 4 4 4
5 5 4 4 4 4 4 4 3 2 2 2 2 1 1 0 1 1 2 2 3 4 4 4 4 4 3 3 2 0 0 1 1 1 1 2 3 3 4 4 4 4 5
5 5 4 4 4 3 3 3 3 2 1 2 2 2 1 1 1 1 2 2 2 2 2 3 3 3 3 3 2 0 1 2 2 2 2 3 3 4 4 4 5 5 5
4 4 4 4 4 4 4 3 3 3 3 1 2 2 2 2 1 1 1 2 2 2 1 2 2 3 3 3 2 0 1 1 2 2 3 3 3 4 4 4 5 5 5
4 4 4 4 4 3 4 4 3 2 3 3 1 1 1 3 2 1 1 1 2 2 2 1 1 2 3 3 3 1 1 1 2 3 4 4 4 4 4 5 6 5 5
3 3 3 3 3 3 3 4 3 3 3 3 2 1 1 1 1 2 1 1 0 0 1 1 1 1 2 2 2 1 1 1 2 4 5 4 4 4 5 5 5 6 5
2 2 3 3 3 2 3 3 3 3 3 2 2 2 2 2 2 2 2 2 2 1 1 1 1 1 2 2 2 1 1 2 3 4 5 4 4 5 5 5 5 6 6
2 2 2 2 2 2 2 2 3 2 3 3 2 2 1 1 1 1 2 2 1 1 0 0 1 2 2 1 1 1 2 2 3 4 4 4 4 5 5 5 6 6 7
3 2 3 3 2 3 2 2 2 2 2 2 2 2 1 1 1 1 2 2 1 1 1 2 1 1 2 2 2 2 2 3 4 4 4 4 4 3 4 5 5 6 7
3 3 3 3 2 3 2 2 2 2 2 2 3 2 2 1 1 0 1 2 3 3 3 2 1 1 1 2 2 2 3 4 4 4 4 5 4 4 4 5 5 6 7
3 3 3 2 2 2 2 2 2 2 2 1 1 2 2 1 1 1 1 1 2 3 3 2 2 1 1 2 3 2 4 5 5 5 5 5 5 4 4 5 6 7 8
3 3 3 3 3 2 2 2 2 2 2 2 2 2 2 2 2 1 1 1 2 2 3 3 1 1 1 2 2 3 4 4 5 6 6 6 6 5 6 6 7 8 8
3 2 2 2 2 2 2 2 2 2 2 2 2 2 2 2 2 2 2 2 2 2 3 4 3 2 2 3 3 3 3 4 5 7 7 7 7 7 7 7 6 7 8
3 3 3 2 2 2 1 1 2 2 1 2 2 3 2 2 2 2 2 2 2 2 1 3 3 2 2 2 2 3 3 3 5 6 6 7 8 8 8 7 7 7 7
3 3 2 2 2 2 1 1 1 1 1 1 2 2 2 3 3 3 3 3 2 2 1 2 3 2 2 2 2 3 3 3 3 3 5 7 8 9 9 9 9 8 8
2 3 3 2 1 1 1 1 1 1 1 1 1 1 1 2 2 3 3 3 3 3 3 3 3 3 3 2 3 3 4 3 3 2 3 4 5 5 7 9 9 9 9
2 3 2 2 1 1 1 1 1 1 1 1 1 1 1 2 3 3 3 4 3 4 4 4 4 5 5 4 3 3 3 3 4 2 2 4 3 4 5 7 9 10 10
3 3 2 2 2 2 2 1 0 1 1 2 2 2 2 2 2 2 3 4 4 6 7 5 6 6 5 5 4 4 4 4 5 3 2 5 3 5 5 8 10 10 10
2 2 2 2 2 2 2 2 1 1 2 2 3 3 3 3 3 2 2 2 3 4 6 5 5 5 5 4 4 5 5 5 4 3 3 4 4 4 5 6 10 10 10
2 2 2 2 2 2 3 3 2 1 1 2 2 2 3 3 4 4 3 3 3 4 6 7 7 8 8 7 6 3 3 3 5 4 2 3 3 4 4 4 7 9 9
2 2 2 2 2 2 3 3 2 2 2 2 2 2 3 4 5 4 3 3 4 5 4 4 5 6 6 6 7 5 5 4 4 5 3 2 2 2 3 3 3 5 7
Wind_Direction
163 155 149 150 153 158 159 161 162 169 164 152 162 178 181 158 132 126 130 136 135 129 125 122 115 109 100 81 62 53 44 45 43 38 33 32 30 29 28 27 27 28 27
152 157 151 147 149 156 159 157 161 153 150 140 135 155 153 143 128 131 136 139 141 141 139 139 135 125 108 89 64 53 43 38 38 34 26 28 33 36 32 26 17 16 19
158 154 155 156 153 155 153 148 146 129 140 141 149 141 96 119 130 134 139 144 149 151 152 153 153 144 125 83 48 50 52 41 32 25 26 30 35 33 24 18 13 10 9
160 149 150 151 139 140 135 144 152 142 140 136 137 157 121 118 132 135 138 141 147 150 154 159 162 158 150 116 53 59 62 53 39 25 23 22 21 19 10 3 0 357 355
154 142 144 143 140 129 132 149 141 141 144 136 131 132 121 137 135 117 131 136 141 145 148 155 163 169 162 149 113 70 63 56 36 22 8 3 359 355 349 343 341 340 339
153 142 143 143 139 144 150 143 139 122 130 136 122 110 94 131 142 136 134 129 139 146 151 151 157 166 169 164 175 206 31 35 14 352 344 337 327 328 327 327 321 318 319
148 148 149 146 145 153 156 144 139 135 109 94 98 92 19 52 157 165 142 133 137 151 160 155 151 150 150 167 189 220 264 294 304 310 319 319 311 316 316 321 317 311 311
152 151 145 150 146 146 145 144 135 140 122 111 128 129 119 1 312 191 152 147 145 134 146 152 148 144 138 148 165 204 296 300 301 285 289 296 300 303 309 314 313 309 311
131 134 140 142 152 155 157 152 144 144 159 159 126 132 139 189 233 254 185 156 158 148 145 139 141 136 134 145 141 117 339 345 322 299 298 298 299 305 310 321 328 323 321
119 124 131 138 147 150 153 158 150 148 154 167 167 113 136 137 143 178 282 190 163 141 142 129 116 128 121 127 132 98 23 340 323 315 306 303 297 305 316 322 325 320 315
106 110 115 128 138 141 148 151 158 157 160 163 161 167 183 128 127 151 205 238 284 196 156 140 125 112 123 136 142 138 189 262 307 315 310 306 306 310 319 326 328 329 320
110 99 110 101 110 126 142 151 155 154 164 157 157 154 156 162 175 170 190 202 217 246 215 158 154 152 146 141 170 147 211 244 281 300 306 311 314 314 317 323 325 327 329
117 129 110 113 105 105 125 134 151 155 162 158 172 184 188 207 177 173 173 203 227 249 222 236 191 156 166 164 195 212 227 246 273 288 301 309 319 320 319 320 319 318 321
141 136 120 111 109 113 112 129 160 163 156 169 179 177 192 220 201 165 168 175 224 273 251 245 258 178 175 181 229 236 260 253 263 274 287 297 302 308 314 313 310 313 317
135 131 126 126 119 114 115 124 137 154 163 176 185 185 191 199 163 171 169 171 182 233 253 243 237 252 233 223 250 243 256 253 259 266 275 284 284 284 286 293 295 299 304
117 130 131 136 133 130 124 124 130 129 127 164 179 181 191 194 181 192 207 224 205 210 243 244 241 250 258 253 250 249 262 256 256 262 265 268 274 278 285 295 298 297 299
113 129 134 134 133 130 126 127 134 146 156 174 174 179 196 167 181 205 203 221 233 211 238 265 265 238 239 248 258 257 256 253 258 258 260 265 269 275 280 284 286 289 293
112 117 118 121 130 135 142 154 164 163 175 189 194 195 206 186 181 205 205 221 237 234 228 257 264 252 248 244 238 237 252 261 257 257 258 261 266 275 280 282 284 289 292
117 117 114 122 125 126 132 156 170 173 178 196 198 201 209 190 201 208 208 227 245 258 245 249 263 258 260 250 249 253 248 264 267 262 261 262 267 271 274 277 282 285 286
125 122 116 115 111 106 109 125 135 155 165 198 204 205 208 203 206 206 214 225 232 243 244 250 261 262 263 258 242 250 264 257 261 271 271 270 268 267 270 273 277 277 278
124 119 112 105 102 107 131 128 127 161 194 230 232 218 215 209 222 225 228 221 219 227 234 243 255 259 257 248 246 253 262 270 263 246 257 264 264 263 266 268 270 271 276
126 123 133 139 143 181 153 155 193 221 238 246 262 271 265 247 241 255 262 251 235 229 233 237 250 247 249 247 249 250 259 270 275 248 245 263 246 254 264 261 267 273 276
140 143 153 151 165 178 181 194 206 256 261 255 247 251 269 269 267 248 265 274 272 265 257 248 247 250 249 240 238 251 254 263 264 247 251 269 256 258 267 269 271 272 275
155 160 163 170 182 203 201 216 222 245 251 251 242 235 236 248 253 255 257 266 269 270 260 250 243 254 255 246 234 245 251 268 278 256 219 257 261 261 273 268 266 266 272
165 178 184 188 206 224 216 219 222 217 230 254 253 244 239 248 256 259 255 259 277 283 286 269 264 267 269 265 260 253 251 264 278 268 227 233 268 282 276 261 258 261 268
177 179 187 199 209 225 231 231 231 211 223 246 261 260 258 255 254 255 246 242 261 273 278 282 278 278 270 260 258 239 231 248 272 270 233 211 254 278 283 265 253 258 265
Height
1518 1520 1522 1525 1527 1529 1531 1533 1535 1537 1539 1540 1542 1544 1545 1546 1548 1548 1549 1549 1550 1550 1551 1551 1552 1552 1552 1552 1552 1552 1551 1551 1551 1550 1550 1550 1550 1549 1549 1549 1549 1548 1548
1516 1519 1521 1523 1525 1527 1529 1531 1533 1535 1537 1539 1540 1542 1544 1545 1546 1547 1548 1548 1549 1549 1550 1550 1551 1551 1551 1551 1550 1550 1550 1550 1549 1549 1549 1549 1548 1548 1548 1548 1547 1547 1546
1514 1516 1518 1521 1523 1525 1527 1529 1531 1533 1535 1537 1539 1540 1542 1543 1545 1546 1546 1547 1547 1548 1549 1549 1549 1549 1550 1549 1549 1549 1548 1548 1548 1548 1547 1547 1547 1547 1546 1546 1546 1545 1545
1511 1514 1516 1518 1521 1523 1525 1527 1529 1531 1533 1535 1537 1538 1540 1542 1543 1544 1545 1545 1546 1546 1547 1548 1548 1548 1548 1548 1548 1547 1547 1547 1546 1546 1546 1546 1545 1545 1545 1545 1544 1544 1543
1509 1511 1513 1516 1518 1520 1523 1525 1527 1529 1531 1533 1535 1536 1538 1539 1541 1542 1543 1544 1544 1545 1545 1546 1546 1546 1547 1546 1546 1546 1545 1545 1545 1545 1544 1544 1544 1543 1543 1543 1542 1542 1541
1506 1509 1511 1514 1516 1518 1521 1523 1525 1527 1529 1531 1532 1534 1535 1537 1538 1540 1541 1542 1542 1543 1544 1544 1544 1545 1545 1545 1545 1544 1544 1543 1543 1543 1542 1542 1542 1541 1541 1541 1540 1539 1539
1503 1506 1508 1511 1513 1516 1518 1520 1522 1524 1526 1528 1530 1532 1533 1535 1536 1538 1539 1539 1540 1541 1542 1542 1542 1542 1542 1543 1543 1543 1542 1542 1541 1541 1540 1540 1540 1539 1539 1538 1538 1537 1537
1500 1503 1506 1508 1510 1513 1515 1517 1519 1521 1523 1525 1527 1529 1530 1533 1534 1535 1536 1537 1538 1539 1539 1540 1540 1540 1540 1540 1540 1540 1540 1540 1539 1538 1538 1538 1537 1537 1536 1536 1535 1535 1534
1497 1500 1503 1505 1508 1510 1512 1514 1516 1519 1520 1523 1524 1526 1528 1529 1531 1533 1533 1535 1536 1536 1536 1537 1537 1538 1538 1538 1538 1538 1538 1537 1537 1536 1535 1535 1534 1534 1533 1533 1532 1532 1531
1495 1497 1500 1503 1505 1507 1509 1512 1514 1516 1518 1520 1521 1523 1525 1526 1528 1529 1531 1532 1533 1534 1534 1534 1535 1535 1535 1535 1535 1535 1535 1535 1534 1534 1533 1532 1531 1531 1530 1530 1529 1529 1528
1493 1495 1498 1500 1502 1504 1507 1509 1511 1513 1515 1517 1519 1520 1522 1524 1525 1526 1527 1529 1530 1531 1531 1532 1532 1532 1532 1532 1532 1533 1532 1532 1531 1531 1530 1529 1528 1528 1527 1527 1526 1525 1525
1491 1493 1495 1497 1499 1502 1504 1506 1508 1510 1512 1514 1516 1518 1519 1520 1522 1523 1524 1524 1526 1527 1528 1529 1529 1529 1529 1529 1529 1529 1529 1529 1528 1527 1526 1525 1525 1524 1524 1523 1523 1522 1522
1488 1491 1493 1495 1497 1499 1501 1503 1505 1507 1509 1511 1513 1515 1516 1518 1519 1520 1521 1521 1522 1523 1524 1525 1526 1526 1526 1526 1526 1526 1525 1525 1525 1524 1523 1522 1522 1521 1520 1520 1519 1519 1518
1486 1488 1491 1493 1494 1496 1498 1500 1502 1504 1506 1508 1510 1511 1513 1514 1516 1517 1518 1518 1518 1519 1520 1521 1522 1522 1522 1522 1522 1522 1522 1522 1521 1520 1519 1519 1518 1517 1517 1516 1516 1515 1514
1483 1486 1488 1490 1492 1494 1495 1497 1499 1501 1503 1504 1506 1508 1509 1510 1512 1513 1515 1515 1516 1515 1516 1517 1518 1518 1518 1519 1518 1518 1518 1517 1517 1516 1516 1515 1515 1514 1513 1512 1512 1511 1511
1481 1483 1485 1487 1489 1491 1493 1494 1496 1498 1499 1501 1502 1504 1505 1506 1508 1509 1511 1512 1512 1512 1511 1512 1513 1514 1514 1514 1514 1514 1514 1514 1513 1513 1512 1512 1511 1510 1509 1509 1508 1507 1506
1479 1481 1483 1484 1486 1488 1490 1491 1493 1494 1496 1497 1498 1500 1501 1502 1504 1505 1506 1507 1508 1508 1507 1507 1509 1509 1510 1509 1509 1510 1510 1509 1509 1509 1508 1508 1507 1506 1506 1505 1504 1503 1502
1477 1478 1480 1482 1484 1485 1487 1488 1490 1491 1492 1493 1495 1496 1497 1498 1499 1501 1502 1503 1503 1503 1503 1502 1503 1504 1505 1505 1505 1505 1505 1505 1505 1505 1504 1503 1503 1502 1502 1501 1500 1499 1498
1474 1476 1478 1479 1481 1482 1484 1485 1486 1487 1488 1490 1491 1492 1493 1494 1495 1496 1497 1498 1499 1499 1499 1499 1498 1499 1500 1500 1500 1500 1500 1500 1500 1500 1499 1499 1498 1498 1497 1496 1495 1494 1493
1472 1473 1475 1476 1478 1479 1481 1482 1483 1484 1485 1486 1487 1488 1489 1490 1491 1492 1493 1493 1494 1494 1495 1495 1494 1494 1495 1495 1496 1495 1494 1495 1495 1495 1494 1494 1493 1493 1492 1491 1491 1490 1489
1469 1471 1472 1473 1475 1476 1477 1478 1479 1480 1481 1482 1483 1483 1484 1485 1487 1488 1488 1489 1490 1490 1490 1490 1490 1490 1490 1490 1490 1490 1490 1489 1489 1489 1489 1488 1488 1487 1487 1486 1485 1484 1483
1467 1468 1469 1470 1472 1473 1475 1476 1477 1477 1478 1478 1478 1479 1480 1481 1482 1483 1484 1485 1486 1486 1486 1486 1485 1485 1485 1485 1486 1486 1485 1484 1482 1484 1483 1482 1482 1481 1481 1480 1480 1479 1478
1464 1465 1467 1468 1469 1470 1471 1472 1473 1474 1474 1474 1475 1475 1476 1477 1478 1479 1480 1480 1481 1481 1482 1482 1481 1480 1480 1480 1480 1480 1480 1479 1478 1478 1478 1475 1476 1475 1475 1475 1474 1473 1472
1461 1462 1463 1464 1465 1467 1468 1469 1469 1470 1470 1470 1471 1472 1472 1473 1474 1475 1475 1475 1475 1476 1477 1476 1476 1476 1476 1476 1476 1476 1475 1474 1473 1472 1472 1470 1469 1469 1468 1468 1468 1467 1466
1458 1459 1460 1461 1462 1463 1464 1465 1465 1466 1466 1466 1467 1468 1468 1468 1469 1470 1470 1470 1470 1470 1471 1471 1471 1470 1470 1471 1471 1470 1469 1468 1466 1465 1466 1465 1463 1462 1461 1461 1461 1461 1460
1454 1455 1456 1457 1458 1459 1460 1460 1461 1461 1461 1462 1463 1463 1464 1464 1465 1465 1466 1465 1464 1465 1465 1465 1465 1464 1464 1465 1465 1465 1464 1463 1461 1459 1459 1459 1458 1457 1454 1453 1454 1454 1454